Temperature
20 21 19 19 17 17 16 16 16 15 15 15 15 15 14 14 14 13 14 14 13 13 13 13 14 14 14 13 13 13 13 13 13 14 14 14 14 15 14 14 12 12 12
22 21 20 19 17 17 16 16 15 15 15 15 14 14 14 13 13 13 13 13 13 14 14 14 13 13 13 13 13 13 13 13 14 14 14 13 13 13 14 13 12 12 12
21 21 20 18 17 16 16 15 15 16 16 15 14 14 14 13 13 13 13 13 13 14 14 14 14 13 13 13 13 13 13 14 14 13 13 12 12 13 14 14 13 12 12
20 20 20 18 17 16 16 15 15 16 15 14 14 14 13 13 13 13 13 13 13 14 14 14 14 14 14 14 14 14 14 14 14 13 12 12 13 13 14 14 14 13 12
19 20 19 18 17 16 16 15 16 16 15 14 14 13 13 13 13 13 13 13 13 14 14 14 14 14 14 14 14 14 14 14 13 13 12 12 13 13 14 14 14 14 13
18 19 19 18 17 16 16 16 16 16 15 14 14 13 13 13 13 13 13 13 13 14 14 14 15 15 14 14 14 14 14 14 13 12 12 12 12 13 13 13 13 13 13
18 19 18 18 17 16 16 16 16 17 16 15 14 14 14 14 13 13 13 13 13 14 14 14 14 14 14 14 14 14 14 14 13 12 12 12 12 12 13 13 13 13 13
18 18 18 18 17 16 16 16 16 17 17 16 15 14 14 14 14 14 13 14 14 14 14 14 14 13 13 13 13 13 13 13 13 12 12 12 12 12 13 13 13 13 13
19 18 18 18 17 16 16 16 16 17 17 16 15 15 14 14 14 14 14 14 14 14 14 14 13 13 13 13 13 13 13 13 13 12 12 12 12 13 13 13 13 13 12
18 18 18 18 17 17 17 17 17 17 17 16 16 15 15 14 14 14 14 14 14 14 14 13 13 13 13 13 13 13 13 13 12 12 13 13 13 13 13 13 12 12 12
18 17 17 17 17 17 16 16 16 17 16 16 16 16 15 14 14 14 14 14 14 14 14 13 13 13 13 13 13 13 13 13 12 12 13 13 12 12 12 12 11 11 11
18 17 17 16 16 16 16 16 16 16 16 16 16 15 15 14 14 14 14 14 14 14 13 13 13 13 13 13 12 13 13 12 12 12 12 12 11 11 10 10 10 10 10
18 18 17 17 16 16 15 16 15 15 15 15 15 15 14 14 14 14 14 14 14 13 13 13 13 13 13 13 13 13 13 12 11 12 11 11 10 10 9 9 10 10 9
19 19 18 17 16 16 16 15 15 15 15 14 14 14 14 14 14 14 14 14 13 13 13 13 13 13 13 13 13 13 12 11 11 11 10 10 9 9 9 9 9 9 9
20 19 18 17 17 16 16 15 15 15 14 14 13 13 14 14 14 13 13 13 12 12 12 12 12 13 13 13 13 13 12 11 10 10 10 10 9 9 9 9 9 9 9
20 20 19 18 17 16 16 15 15 15 14 14 14 13 13 13 13 13 13 12 12 12 12 12 12 13 13 13 13 12 11 10 9 9 9 9 9 9 8 8 8 8 9
20 20 19 18 17 17 17 16 15 15 14 14 14 13 13 13 13 13 13 12 12 12 12 12 12 13 13 12 12 11 11 10 9 9 9 9 9 8 8 8 8 8 8
21 20 20 19 18 17 17 17 16 15 14 14 14 13 13 13 13 13 12 12 12 12 12 12 12 12 12 12 11 11 10 10 9 8 8 8 8 8 8 8 8 8 8
20 20 20 19 19 18 17 18 17 15 15 14 14 13 13 13 13 12 12 12 12 12 12 12 12 11 11 11 11 11 10 9 8 8 7 7 7 7 7 7 7 7 7
20 20 20 19 19 18 17 17 17 15 14 14 14 13 13 13 13 12 12 12 12 11 12 11 11 11 11 11 11 10 9 9 8 8 7 7 6 6 7 7 7 7 6
19 19 20 19 19 18 17 17 17 15 14 14 14 13 13 13 13 12 12 12 12 11 11 11 11 10 10 10 10 10 9 8 8 7 7 7 6 6 6 6 6 6 6
18 18 19 19 19 18 17 18 17 15 14 14 14 13 13 13 12 12 12 12 12 11 11 11 10 10 10 10 10 9 8 8 7 7 6 6 6 5 5 5 5 5 5
17 18 18 18 18 18 17 16 15 14 14 13 13 13 13 13 12 12 12 12 11 11 11 10 10 10 9 9 9 8 8 7 7 7 6 5 5 5 4 4 4 4 4
17 17 17 17 18 17 17 16 15 15 14 14 13 13 13 12 12 12 11 11 11 11 10 10 10 9 9 8 8 7 7 6 5 6 5 5 4 4 4 3 3 3 3
17 17 17 17 17 17 16 15 15 15 15 14 13 13 12 12 11 11 11 11 11 10 10 10 9 9 8 8 7 6 6 5 4 3 3 4 4 3 3 3 3 2 2
16 16 17 17 17 16 15 14 14 14 15 14 13 12 12 12 11 11 10 10 10 10 10 9 9 8 7 7 6 6 5 4 3 2 2 2 3 3 3 3 2 1 0
Wind_Speed
12 17 21 19 17 16 15 14 13 12 10 10 12 14 16 16 15 14 13 13 12 11 12 14 16 16 14 14 15 14 12 10 8 6 5 5 7 9 8 7 6 5 5
17 20 22 20 18 17 15 14 13 11 9 9 11 14 15 15 14 13 13 13 13 12 12 13 15 17 16 15 13 11 10 8 6 4 3 0 5 9 9 8 7 6 6
19 21 22 21 19 17 16 14 12 11 10 10 12 14 15 14 13 13 13 13 13 14 14 14 14 15 14 13 11 10 9 7 4 6 8 3 6 8 8 7 6 5 4
19 20 20 22 20 18 16 14 12 11 11 12 13 14 14 13 13 12 12 13 13 13 14 13 13 13 12 11 10 9 8 5 5 8 7 6 7 8 6 5 6 6 5
17 19 22 22 21 19 17 14 12 11 11 13 13 14 13 12 11 10 10 11 11 11 11 11 11 10 10 9 8 7 6 5 7 10 5 6 10 8 6 5 4 5 5
16 19 23 22 21 19 17 15 13 12 12 12 13 12 11 10 8 7 8 11 10 10 9 9 9 8 7 6 6 5 4 5 9 7 3 7 10 7 6 5 5 4 5
15 19 22 22 21 19 18 16 14 13 12 12 12 11 10 8 6 5 8 11 10 8 8 8 7 7 6 5 5 4 2 5 9 6 5 9 9 6 5 6 6 6 5
16 18 20 22 22 20 18 16 15 14 13 12 11 10 9 8 7 6 10 12 10 8 7 7 6 5 5 5 4 3 3 5 7 6 6 11 8 6 6 7 8 8 7
16 16 15 18 19 20 20 18 15 14 13 12 11 10 10 9 9 10 13 12 10 8 7 6 6 6 5 5 4 3 5 7 9 6 10 11 9 8 8 8 9 9 9
12 16 13 15 17 16 17 19 17 15 13 12 11 12 12 10 11 12 13 13 11 9 8 7 7 6 6 5 4 4 7 10 6 11 12 10 10 8 9 11 12 14 15
9 12 14 13 14 16 16 17 18 16 14 13 12 13 12 11 12 12 14 13 12 10 9 7 6 5 5 4 3 6 8 9 9 12 12 11 9 11 13 14 15 15 16
9 9 12 14 13 13 14 15 14 13 13 13 13 13 12 11 11 14 14 13 12 11 10 7 5 3 2 3 4 6 9 11 9 12 13 13 12 13 14 14 14 14 15
12 10 9 12 12 11 8 12 10 11 13 14 16 16 12 9 12 13 11 11 11 11 8 6 3 4 6 5 6 7 6 5 8 12 14 15 13 13 13 13 14 14 14
14 13 10 10 11 10 9 8 7 7 8 8 12 16 10 6 6 7 7 10 9 8 6 4 4 6 6 7 7 7 6 4 10 12 14 15 14 13 13 13 13 13 13
9 14 12 11 11 10 10 8 7 5 7 9 10 12 11 5 5 4 5 7 8 8 6 4 5 5 5 6 7 6 6 6 10 13 13 14 14 13 13 13 13 13 13
8 11 12 12 12 11 9 8 8 6 8 9 9 11 13 9 5 5 5 5 6 8 7 6 6 4 4 4 3 4 5 5 7 13 14 13 13 12 12 12 12 13 13
9 10 12 13 14 14 11 9 8 6 9 7 9 13 12 12 11 8 5 5 6 8 7 6 5 4 3 2 2 2 3 4 4 9 12 12 11 10 9 10 12 12 13
9 10 12 13 14 15 12 10 7 6 7 8 11 12 13 15 16 10 6 5 8 9 6 3 3 3 3 4 3 2 1 2 2 6 8 9 8 6 5 7 10 12 12
10 10 10 12 13 13 13 11 9 7 9 8 11 11 13 16 17 11 6 6 9 6 4 4 5 4 4 4 3 1 0 2 2 3 3 7 6 3 2 4 8 10 12
11 10 11 12 13 12 12 10 8 8 8 8 8 10 15 15 16 13 7 8 9 6 5 5 4 4 3 3 4 2 1 2 3 3 2 4 6 6 3 1 3 7 11
10 10 10 12 13 11 11 12 11 9 7 7 8 12 15 16 16 12 7 7 6 6 6 6 4 4 4 4 3 3 2 2 3 3 3 2 2 5 5 1 3 5 8
12 11 10 10 13 13 12 11 8 6 6 6 7 9 13 15 15 13 9 8 8 7 7 6 4 3 2 4 3 2 3 2 2 3 2 3 2 0 0 2 3 5 6
14 13 11 10 11 14 14 10 9 7 6 4 7 7 8 13 14 13 10 9 9 7 6 6 4 4 3 2 4 4 3 2 4 4 2 1 0 1 1 3 5 5 6
13 13 13 11 11 13 16 16 17 12 9 7 7 7 9 10 12 14 13 10 9 8 8 6 5 3 3 2 2 2 2 2 1 4 4 3 3 3 4 4 5 7 8
10 10 12 11 10 13 15 16 16 11 8 10 11 12 10 9 10 13 13 10 9 8 8 7 6 4 3 3 2 2 1 0 2 3 5 5 5 4 5 5 6 9 10
7 7 9 12 12 14 15 16 15 15 16 18 17 15 12 9 9 10 12 9 8 8 8 7 6 5 4 3 2 2 1 1 1 2 4 5 6 5 6 6 6 8 10
Wind_Direction
130 139 144 141 137 131 124 116 109 103 101 108 118 120 115 108 99 91 81 72 65 63 62 58 57 62 75 91 91 84 75 68 60 46 46 60 65 54 43 33 11 26 65
135 140 144 142 139 134 127 120 113 106 105 114 124 124 118 111 102 93 84 75 69 69 69 66 62 63 67 72 74 72 67 62 50 2 337 294 90 69 47 35 24 24 37
133 140 143 142 140 135 129 124 117 111 111 118 126 125 121 113 105 96 88 79 74 73 73 70 67 66 67 67 65 63 59 51 17 325 309 256 125 68 49 29 15 10 6
133 142 144 143 141 138 133 128 122 116 118 121 124 125 121 115 109 101 93 86 81 78 76 72 69 67 66 64 61 58 54 39 339 319 325 70 82 65 44 22 5 1 356
136 144 142 145 144 141 137 132 127 121 122 123 124 124 120 118 114 108 103 99 92 85 79 73 69 67 66 64 60 55 43 5 326 306 310 76 87 59 37 17 358 346 340
137 136 143 146 146 144 141 137 134 130 127 125 124 122 116 111 109 112 117 115 105 91 78 67 64 65 66 67 65 57 34 343 318 314 50 78 84 47 24 7 354 341 326
134 134 147 147 149 148 144 142 141 139 137 133 128 123 115 104 93 113 132 129 116 96 75 62 57 61 65 66 64 58 23 323 304 314 60 83 72 39 11 0 357 347 330
129 136 148 151 153 152 149 148 148 148 148 144 140 133 119 99 88 112 134 135 122 100 78 65 61 67 68 62 53 37 337 313 324 345 69 83 54 23 5 12 14 7 1
131 137 147 154 158 157 153 153 155 156 157 155 150 138 122 106 99 112 130 132 121 102 88 79 79 84 80 70 50 12 333 323 314 339 62 60 32 17 13 18 17 17 19
134 142 153 158 163 163 160 159 160 162 162 162 154 142 136 128 122 121 124 125 120 112 103 97 97 100 98 86 54 359 338 330 352 49 57 41 27 27 41 47 49 50 48
148 150 159 164 166 167 166 166 162 164 166 163 156 157 161 169 155 132 126 127 126 123 118 116 120 126 121 104 49 351 345 358 20 65 45 42 47 60 64 61 56 53 49
172 171 164 168 168 169 168 163 168 170 169 174 172 176 195 200 154 134 133 134 134 131 127 131 140 152 132 72 8 0 25 8 26 70 49 60 68 70 65 59 54 51 48
177 180 173 166 167 167 158 165 174 175 174 191 182 184 194 143 125 136 139 141 144 144 141 150 151 79 65 53 18 18 34 6 55 75 57 63 69 70 65 58 51 46 40
176 175 174 166 163 165 161 171 172 172 175 189 183 176 162 143 160 165 156 157 151 135 124 115 93 79 53 43 37 15 11 31 89 91 68 67 69 68 63 55 47 38 31
181 169 173 170 167 169 168 173 172 170 172 177 169 166 159 151 161 130 110 113 114 121 116 89 68 62 51 39 28 21 12 32 90 103 86 77 72 67 60 50 40 30 21
200 172 170 174 172 173 175 175 177 176 171 169 161 170 167 158 137 112 104 104 104 102 96 91 78 66 59 50 23 17 14 32 85 115 111 94 84 73 60 47 33 22 13
201 186 175 178 177 176 179 181 181 179 173 164 162 174 167 144 128 120 116 115 119 115 98 81 78 67 61 18 8 63 44 37 60 113 125 122 107 88 65 41 23 13 5
212 194 183 180 179 176 177 182 188 183 172 167 164 170 157 137 133 127 126 127 123 108 95 80 61 64 56 26 0 20 32 99 56 101 112 110 102 82 57 31 15 4 356
226 207 186 172 176 176 173 177 190 191 174 167 164 162 146 137 136 134 130 130 122 107 96 87 57 54 48 11 321 283 310 171 149 116 125 125 120 101 23 4 6 355 348
236 223 189 173 175 173 167 172 188 194 175 163 157 148 139 140 138 134 133 129 118 109 109 106 103 71 46 347 311 290 213 179 146 174 189 154 164 181 206 328 11 3 349
247 237 209 184 178 174 170 177 187 188 166 148 141 140 140 142 141 141 135 127 124 125 129 126 118 90 35 354 2 341 272 200 184 203 187 166 210 207 201 213 43 11 346
239 240 224 197 182 177 175 178 177 151 124 112 121 127 138 143 145 145 137 134 125 118 105 97 97 110 63 31 40 15 1 338 298 245 182 189 228 203 114 6 1 334 326
224 229 229 212 188 174 164 155 134 108 93 99 119 131 137 145 144 141 134 129 126 122 120 114 103 104 130 68 59 74 71 332 322 319 270 205 189 306 290 297 294 287 304
226 217 219 214 189 168 161 163 164 166 159 162 149 141 139 143 142 136 132 131 124 121 122 118 104 90 95 112 87 68 103 112 22 319 321 337 352 339 317 307 300 290 289
236 222 208 197 175 162 163 168 172 165 140 137 137 143 144 144 138 134 133 130 126 125 121 115 109 89 73 86 83 52 22 51 205 225 282 304 323 322 324 309 294 285 276
256 243 210 183 168 162 167 168 170 163 151 149 152 155 152 146 138 132 132 128 123 121 120 120 114 101 83 74 57 49 61 19 345 303 287 304 299 293 300 287 281 274 263
Height
1498 1500 1502 1505 1507 1509 1511 1512 1514 1515 1517 1518 1519 1520 1522 1523 1524 1524 1524 1524 1524 1525 1525 1527 1528 1528 1529 1530 1531 1532 1533 1533 1534 1534 1534 1534 1533 1533 1533 1533 1534 1535 1534
1497 1499 1502 1505 1507 1509 1511 1513 1514 1515 1516 1517 1519 1521 1522 1523 1524 1524 1525 1524 1524 1524 1525 1526 1528 1529 1530 1531 1532 1533 1533 1534 1534 1534 1534 1533 1533 1533 1533 1533 1534 1534 1534
1496 1499 1502 1505 1507 1509 1511 1513 1514 1515 1515 1516 1519 1521 1523 1524 1525 1525 1525 1525 1525 1525 1526 1527 1529 1530 1532 1533 1533 1534 1533 1534 1534 1534 1534 1533 1534 1534 1534 1534 1534 1534 1534
1496 1499 1502 1505 1507 1509 1511 1513 1514 1515 1516 1517 1519 1521 1523 1524 1526 1526 1526 1527 1527 1527 1527 1528 1530 1531 1532 1533 1534 1534 1534 1534 1534 1534 1535 1535 1535 1534 1534 1534 1534 1534 1534
1497 1499 1502 1505 1507 1510 1512 1513 1514 1515 1516 1518 1519 1521 1523 1525 1526 1527 1528 1528 1528 1529 1529 1530 1531 1532 1533 1534 1534 1534 1535 1535 1535 1535 1535 1535 1535 1535 1534 1534 1534 1533 1534
1498 1499 1502 1505 1508 1510 1512 1513 1514 1515 1517 1518 1520 1521 1523 1525 1526 1527 1528 1529 1530 1530 1530 1531 1532 1533 1534 1534 1535 1535 1535 1535 1535 1535 1536 1535 1535 1534 1534 1534 1534 1533 1533
1499 1499 1503 1505 1507 1510 1511 1513 1514 1515 1517 1518 1520 1521 1523 1525 1526 1528 1529 1530 1530 1531 1532 1532 1533 1534 1534 1534 1535 1535 1535 1535 1535 1535 1536 1535 1534 1534 1533 1533 1533 1533 1533
1498 1499 1502 1505 1507 1509 1511 1512 1514 1515 1516 1518 1520 1521 1523 1525 1526 1528 1529 1530 1531 1532 1532 1533 1534 1534 1535 1535 1535 1534 1534 1534 1534 1535 1535 1534 1533 1533 1532 1532 1532 1532 1532
1498 1498 1501 1504 1506 1508 1510 1512 1513 1515 1516 1518 1519 1521 1523 1525 1526 1528 1529 1530 1531 1532 1533 1534 1534 1535 1535 1535 1535 1534 1534 1533 1533 1534 1533 1532 1532 1531 1531 1530 1530 1530 1530
1498 1498 1500 1502 1504 1507 1509 1511 1512 1514 1515 1517 1519 1521 1523 1525 1526 1527 1528 1530 1531 1532 1533 1533 1534 1534 1534 1534 1534 1533 1533 1532 1532 1532 1531 1531 1530 1530 1529 1529 1528 1528 1528
1498 1498 1498 1500 1503 1505 1508 1510 1511 1513 1514 1516 1518 1520 1522 1524 1525 1526 1528 1529 1530 1531 1532 1533 1533 1533 1533 1533 1533 1532 1532 1531 1531 1529 1529 1529 1528 1527 1527 1526 1526 1526 1525
1496 1498 1499 1499 1502 1504 1506 1508 1510 1511 1513 1515 1517 1519 1521 1523 1524 1525 1527 1528 1529 1530 1531 1531 1532 1531 1531 1531 1531 1531 1530 1530 1529 1526 1527 1526 1526 1525 1524 1524 1524 1523 1523
1493 1496 1498 1499 1501 1503 1504 1505 1508 1510 1511 1513 1515 1517 1520 1521 1523 1524 1525 1526 1527 1528 1529 1530 1530 1530 1530 1529 1529 1529 1528 1527 1526 1524 1524 1524 1523 1522 1522 1522 1522 1522 1521
1490 1492 1495 1497 1499 1501 1502 1504 1506 1507 1509 1512 1514 1516 1518 1520 1522 1523 1523 1524 1526 1527 1528 1528 1529 1528 1528 1527 1527 1526 1525 1524 1522 1521 1522 1521 1521 1520 1521 1521 1521 1520 1520
1489 1489 1491 1494 1496 1498 1500 1502 1504 1506 1508 1510 1513 1515 1516 1518 1520 1521 1522 1523 1524 1525 1526 1527 1527 1527 1526 1525 1524 1523 1523 1522 1520 1519 1519 1519 1519 1519 1519 1519 1519 1518 1518
1486 1487 1488 1490 1493 1495 1497 1499 1501 1503 1506 1508 1510 1513 1515 1517 1518 1520 1521 1522 1523 1524 1525 1525 1525 1525 1524 1523 1522 1521 1520 1520 1519 1517 1517 1517 1517 1517 1517 1517 1517 1516 1516
1482 1484 1485 1487 1489 1490 1493 1495 1498 1500 1503 1506 1507 1510 1513 1514 1516 1518 1519 1521 1522 1523 1523 1523 1523 1522 1522 1521 1520 1519 1518 1518 1518 1516 1515 1515 1515 1515 1516 1516 1515 1514 1513
1477 1479 1480 1482 1484 1486 1488 1490 1493 1497 1499 1502 1504 1507 1509 1511 1513 1515 1517 1519 1520 1521 1521 1521 1521 1520 1519 1519 1518 1517 1516 1516 1516 1515 1514 1513 1513 1513 1514 1514 1513 1512 1511
1471 1474 1475 1476 1478 1481 1483 1485 1488 1492 1495 1498 1500 1503 1505 1507 1510 1512 1514 1516 1518 1519 1519 1519 1519 1518 1518 1517 1516 1515 1514 1514 1513 1513 1513 1512 1512 1512 1512 1511 1510 1509 1507
1465 1467 1469 1470 1472 1476 1478 1480 1483 1487 1490 1493 1496 1498 1501 1504 1506 1509 1512 1513 1515 1516 1517 1517 1517 1517 1516 1515 1514 1513 1513 1512 1512 1511 1511 1510 1510 1509 1509 1508 1506 1505 1504
1456 1460 1462 1463 1465 1469 1471 1473 1476 1480 1484 1488 1490 1493 1497 1500 1503 1506 1508 1510 1512 1513 1515 1515 1516 1516 1515 1514 1513 1512 1511 1511 1510 1509 1509 1509 1508 1507 1506 1504 1503 1502 1500
1449 1451 1455 1456 1458 1460 1463 1467 1472 1475 1479 1482 1485 1488 1493 1497 1500 1503 1505 1507 1509 1511 1512 1513 1514 1514 1513 1512 1512 1510 1510 1511 1509 1508 1507 1507 1506 1505 1504 1502 1500 1498 1496
1442 1444 1447 1450 1452 1454 1457 1462 1465 1469 1471 1475 1478 1483 1488 1492 1496 1499 1501 1504 1506 1508 1510 1511 1512 1511 1511 1510 1510 1510 1509 1509 1508 1507 1506 1505 1504 1503 1501 1499 1496 1493 1491
1435 1437 1440 1444 1446 1447 1450 1453 1456 1459 1462 1466 1470 1477 1483 1488 1492 1495 1497 1500 1503 1505 1507 1509 1510 1510 1509 1508 1507 1507 1507 1507 1506 1504 1503 1502 1501 1499 1497 1495 1492 1489 1486
1428 1430 1432 1436 1439 1440 1443 1446 1450 1453 1456 1460 1466 1473 1478 1483 1487 1490 1494 1497 1499 1502 1504 1506 1507 1508 1507 1506 1505 1504 1503 1503 1503 1501 1498 1496 1496 1494 1492 1490 1487 1483 1480
1421 1422 1424 1427 1430 1433 1437 1440 1444 1447 1449 1454 1460 1466 1472 1477 1482 1486 1490 1493 1496 1499 1501 1503 1504 1505 1505 1504 1503 1502 1501 1500 1500 1498 1495 1491 1488 1486 1485 1483 1480 1477 1475